Location: Ash Shall?l al Awwal
(24.0167°N, 32.8667°E)
Time: 05:04:56
(UTC+00:00)

Cosmos 2219 Rocket - Pass Details

Date: 02 March 2021
Orbit: 826 x 848 km, 71.0° (Epoch: 12 April)

Event Time Altitude Azimuth Distance (km) Brightness Sun altitude
Rises 16:10:24 0° 155° (SSE) 3,349 5.1 -5.0°
Reaches altitude 10° 16:13:59 10° 132° (SE) 2,420 4.2 -5.9°
Maximum altitude 16:16:51 14° 100° (E) 2,125 3.7 -6.5°
Drops below altitude 10° 16:19:44 10° 68° (ENE) 2,427 4.0 -7.2°
Enters shadow 16:22:23 - 50° (NE) 3,089 4.6 -7.8°
